IZ4UFQ-10 Weather Reports


time (UTC)temp
C
wind
direction
speed
KPH
gust
KPH
rain 1hr
cm
rain 24hr
cm
rain mn
cm
humidity
%
barometer
mb
20260507065352 17 206 0.0 0.0 0.00 0.33 0.00 58 1012.8
20260507064851 17 226 0.0 0.0 0.00 0.33 0.00 60 1012.8
20260507064351 17 226 0.0 0.0 0.00 0.33 0.00 59 1012.7
20260507063851 17 220 0.0 0.0 0.00 0.33 0.00 60 1012.7
20260507063350 17 226 0.0 0.0 0.00 0.33 0.00 60 1012.7
20260507062850 16 226 0.0 0.0 0.00 0.33 0.00 61 1012.7
20260507062350 16 226 0.0 0.0 0.00 0.33 0.00 61 1012.6
20260507061850 16 218 0.0 0.0 0.00 0.33 0.00 62 1012.5
20260507061349 16 213 0.0 0.0 0.00 0.33 0.00 63 1012.6
20260507060849 16 222 0.0 0.0 0.00 0.33 0.00 65 1012.4
20260507060349 16 222 0.0 0.0 0.00 0.33 0.00 65 1012.4
20260507055848 15 222 0.0 0.0 0.00 0.76 0.00 66 1012.3
20260507055348 15 212 0.0 0.0 0.00 0.76 0.00 67 1012.3
20260507054848 15 214 0.0 0.0 0.00 0.76 0.00 67 1012.3
20260507054347 15 214 0.0 0.0 0.00 0.76 0.00 68 1012.3
20260507053847 15 212 0.0 0.0 0.00 0.76 0.00 69 1012.3
20260507053347 14 211 0.0 0.0 0.00 0.76 0.00 69 1012.2
20260507052847 14 218 0.0 0.0 0.00 0.76 0.00 70 1012.1
20260507052346 13 212 0.0 0.0 0.00 0.76 0.00 71 1012.1
20260507051846 13 210 0.0 0.0 0.00 0.76 0.00 72 1012.1
20260507051346 13 212 0.0 0.0 0.00 0.76 0.00 73 1012.1
20260507050845 13 205 0.0 0.0 0.00 0.76 0.00 74 1012.0
20260507050345 13 206 0.0 0.0 0.00 0.76 0.00 76 1012.0
20260507045845 12 230 0.0 0.0 0.00 1.07 0.00 77 1011.9
20260507045345 12 235 0.0 0.0 0.00 1.07 0.00 78 1011.8
20260507044844 12 241 0.0 0.0 0.00 1.07 0.00 79 1011.8
20260507044344 12 241 0.0 0.0 0.00 1.07 0.00 79 1011.7
20260507043844 12 241 0.0 0.0 0.00 1.07 0.00 79 1011.7
20260507043343 12 241 0.0 0.0 0.00 1.07 0.00 78 1011.6
20260507042843 12 241 0.0 0.0 0.00 1.07 0.00 78 1011.6
20260507042343 12 241 0.0 0.0 0.00 1.07 0.00 77 1011.6
20260507041843 12 241 0.0 0.0 0.00 1.07 0.00 77 1011.6
20260507041342 12 247 0.0 0.0 0.00 1.07 0.00 77 1011.6
20260507040842 12 246 0.0 0.0 0.00 1.07 0.00 77 1011.5
20260507040342 12 246 0.0 0.0 0.00 1.07 0.00 77 1011.5
20260507035841 12 247 0.0 0.0 0.00 1.75 0.00 77 1011.5
20260507035341 12 247 0.0 0.0 0.00 1.75 0.00 77 1011.4
20260507034841 12 247 0.0 0.0 0.00 1.75 0.00 77 1011.3
20260507034341 12 241 0.0 0.0 0.00 1.75 0.00 77 1011.3
20260507033840 12 239 0.0 0.0 0.00 1.75 0.00 76 1011.3
20260507033340 12 240 0.0 0.0 0.00 1.75 0.00 76 1011.3
20260507032840 12 224 0.0 0.0 0.00 1.75 0.00 76 1011.3
20260507032339 13 223 0.0 0.0 0.00 1.75 0.00 76 1011.3
20260507031839 13 233 0.0 0.0 0.00 1.75 0.00 75 1011.2
20260507031339 13 233 0.0 0.0 0.00 1.75 0.00 75 1011.2
20260507030839 13 233 0.0 0.0 0.00 1.75 0.00 75 1011.2
20260507030338 13 231 0.0 0.0 0.00 1.75 0.00 75 1011.2
20260507025838 13 233 0.0 0.0 0.00 1.93 0.00 74 1011.2
20260507025338 13 209 0.0 0.0 0.00 1.93 0.00 74 1011.2
20260507024837 13 209 0.0 0.0 0.00 1.93 0.00 74 1011.2
20260507024337 13 209 0.0 0.0 0.00 1.93 0.00 74 1011.1
20260507023837 13 220 0.0 0.0 0.00 1.93 0.00 74 1011.1
20260507023337 13 206 0.0 0.0 0.00 1.93 0.00 74 1011.1
20260507022836 13 165 0.0 0.0 0.00 1.93 0.00 74 1011.1
20260507022336 13 174 0.0 0.0 0.00 1.93 0.00 74 1011.1
20260507021836 13 186 0.0 0.0 0.00 1.93 0.00 73 1011.1
20260507021335 13 212 0.0 0.0 0.00 1.93 0.00 73 1011.1
20260507020835 13 213 0.0 0.0 0.00 1.93 0.00 73 1011.1
20260507020335 13 212 0.0 0.0 0.00 1.93 0.00 73 1011.2
20260507015835 13 212 0.0 0.0 0.00 2.16 0.00 73 1011.0
20260507015334 13 216 0.0 0.0 0.00 2.16 0.00 73 1011.0
20260507014834 13 207 0.0 0.0 0.00 2.16 0.00 74 1011.0
20260507014334 13 208 0.0 0.0 0.00 2.16 0.00 75 1010.9
20260507013833 13 213 0.0 0.0 0.00 2.16 0.00 76 1010.9
20260507013333 13 199 0.0 0.0 0.00 2.16 0.00 78 1010.9
20260507012833 13 211 0.0 0.0 0.00 2.16 0.00 78 1010.8
20260507012333 13 211 0.0 0.0 0.00 2.16 0.00 77 1010.8
20260507011832 13 211 0.0 0.0 0.00 2.16 0.00 76 1010.8
20260507011332 13 211 0.0 0.0 0.00 2.16 0.00 76 1010.8
20260507010832 13 211 0.0 0.0 0.00 2.16 0.00 75 1010.8
20260507010331 13 211 0.0 0.0 0.00 2.16 0.00 74 1010.8
20260507005831 14 211 0.0 0.0 0.00 2.77 0.00 73 1010.8
20260507005331 14 211 0.0 0.0 0.00 2.77 0.00 72 1010.9
20260507004831 14 211 0.0 0.0 0.00 2.77 0.00 71 1010.9
20260507004330 15 211 0.0 0.0 0.00 2.77 0.00 70 1010.9
20260507003830 15 211 0.0 0.0 0.00 2.77 0.00 70 1010.9
20260507003330 15 211 0.0 0.0 0.00 2.77 0.00 70 1011.0
20260507002829 15 211 0.0 0.0 0.00 2.77 0.00 69 1010.9
20260507002329 15 212 0.0 0.0 0.00 2.77 0.00 69 1010.7
20260507001829 15 211 0.0 0.0 0.00 2.77 0.00 69 1010.8
20260507001329 15 212 0.0 0.0 0.00 2.77 0.00 69 1010.9
20260507000828 15 206 0.0 0.0 0.00 2.77 0.00 69 1010.9
20260507000328 15 209 0.0 0.0 0.00 2.77 0.00 69 1010.9
20260506235828 14 204 0.0 0.0 0.00 3.10 0.00 70 1010.9
20260506235327 14 211 0.0 0.0 0.00 3.10 0.00 70 1010.9
20260506234827 14 211 0.0 0.0 0.00 3.10 0.00 71 1010.9
20260506234327 14 211 0.0 0.0 0.00 3.10 0.00 70 1010.8
20260506233826 14 210 0.0 0.0 0.00 3.10 0.00 70 1010.9
20260506233326 15 210 0.0 0.0 0.00 3.10 0.00 69 1010.9
20260506232826 14 210 0.0 0.0 0.00 3.10 0.00 69 1011.0
20260506232326 14 210 0.0 0.0 0.00 3.10 0.00 69 1011.0
20260506231825 14 210 0.0 0.0 0.00 3.10 0.00 69 1011.0
20260506231325 15 211 0.0 0.0 0.00 3.10 0.00 69 1011.0
20260506230825 15 211 0.0 0.0 0.00 3.10 0.00 67 1011.1
20260506230325 15 210 0.0 0.0 0.00 3.10 0.00 67 1011.1
20260506225824 15 209 0.0 0.0 0.00 3.12 0.00 67 1011.1
20260506225324 15 210 0.0 0.0 0.00 3.12 0.00 67 1011.1
20260506224824 15 214 0.0 0.0 0.00 3.12 0.00 67 1011.1
20260506224323 15 216 0.0 0.0 0.00 3.12 0.00 68 1011.0
20260506223823 15 239 0.0 0.0 0.00 3.12 0.00 67 1011.0
20260506223323 15 240 0.0 0.0 0.00 3.12 0.00 67 1011.0
20260506222822 15 240 0.0 0.0 0.00 3.12 0.00 66 1011.0
20260506222322 15 243 0.0 0.0 0.00 3.12 0.00 66 1010.9
20260506221822 15 189 0.0 0.0 0.00 3.12 0.00 65 1010.8
20260506221322 16 189 0.0 0.0 0.00 3.12 0.00 64 1010.8
20260506220821 16 188 0.0 0.0 0.00 3.12 0.00 63 1010.8
20260506220321 16 188 0.0 0.0 0.00 3.12 0.00 63 1010.7
20260506215821 16 187 0.0 0.0 0.00 3.12 0.00 63 1010.8
20260506215320 16 189 0.0 0.0 0.00 3.12 3.12 63 1010.7
20260506214820 15 184 0.0 0.0 0.00 3.12 3.12 64 1010.7
20260506214320 16 184 0.0 0.0 0.00 3.12 3.12 64 1010.6
20260506213820 16 183 0.0 0.0 0.00 3.12 3.12 63 1010.6
20260506213319 16 183 0.0 0.0 0.00 3.12 3.12 63 1010.6
20260506212819 15 185 0.0 0.0 0.00 3.12 3.12 64 1010.6
20260506212319 15 185 0.0 0.0 0.00 3.12 3.12 65 1010.6
20260506211818 15 189 0.0 0.0 0.00 3.12 3.12 66 1010.5
20260506211318 15 189 0.0 0.0 0.00 3.12 3.12 67 1010.6
20260506210818 15 189 0.0 0.0 0.00 3.12 3.12 66 1010.6
20260506210318 15 189 0.0 0.0 0.00 3.12 3.12 65 1010.6
20260506205817 16 189 0.0 0.0 0.00 3.12 3.12 64 1010.6
20260506205317 16 189 0.0 0.0 0.00 3.12 3.12 62 1010.5
20260506204817 16 189 0.0 0.0 0.00 3.12 3.12 61 1010.5
20260506204316 16 189 0.0 0.0 0.00 3.12 3.12 60 1010.4
20260506203816 16 189 0.0 0.0 0.00 3.12 3.12 59 1010.4
20260506203316 16 189 0.0 0.0 0.00 3.12 3.12 59 1010.4
20260506202816 16 189 0.0 0.0 0.00 3.12 3.12 59 1010.4
20260506202315 16 187 0.0 0.0 0.00 3.12 3.12 58 1010.3
20260506201815 16 187 0.0 0.0 0.00 3.12 3.12 58 1010.3
20260506201315 16 187 0.0 0.0 0.00 3.12 3.12 57 1010.3
20260506200814 16 187 0.0 0.0 0.00 3.12 3.12 57 1010.2
20260506200314 16 187 0.0 0.0 0.00 3.12 3.12 57 1010.0
20260506195814 17 187 0.0 0.0 0.00 3.12 3.12 56 1010.0
20260506195314 17 175 0.0 0.0 0.00 3.12 3.12 56 1009.9
20260506194813 17 214 0.0 0.0 0.00 3.12 3.12 56 1009.8
20260506194313 17 197 0.0 0.0 0.00 3.12 3.12 55 1009.8
20260506193813 17 232 0.0 0.0 0.00 3.12 3.12 55 1009.7
20260506193312 17 179 0.0 0.0 0.00 3.12 3.12 55 1009.6
20260506192812 17 179 0.0 0.0 0.00 3.12 3.12 54 1009.5
20260506192312 17 174 0.0 0.0 0.00 3.12 3.12 54 1009.4
20260506191812 17 190 0.0 0.0 0.00 3.12 3.12 53 1009.3
20260506191311 17 174 0.0 0.0 0.00 3.12 3.12 53 1009.2
20260506190811 17 182 0.0 0.0 0.00 3.12 3.12 52 1009.1
20260506190311 17 180 0.0 0.0 0.00 3.12 3.12 53 1009.2
20260506185810 17 191 0.0 0.0 0.00 3.12 3.12 52 1009.1
20260506185310 17 206 0.0 0.0 0.00 3.12 3.12 53 1009.1
20260506184810 17 188 0.0 0.0 0.00 3.12 3.12 53 1009.1
20260506184309 17 176 0.0 0.0 0.00 3.12 3.12 54 1009.0
20260506183809 17 166 0.0 0.0 0.00 3.12 3.12 54 1009.0
20260506183309 17 187 0.0 0.0 0.00 3.12 3.12 55 1008.9
20260506182809 17 184 0.0 0.0 0.00 3.12 3.12 55 1008.8
20260506182308 17 176 0.0 0.0 0.00 3.12 3.12 56 1008.9
20260506181808 17 180 0.0 0.0 0.00 3.12 3.12 58 1008.8
20260506181308 17 164 0.0 0.0 0.00 3.12 3.12 58 1008.7
20260506180808 17 187 0.0 0.0 0.00 3.12 3.12 59 1008.7
20260506180307 17 181 0.0 0.0 0.00 3.12 3.12 59 1008.7
20260506175807 17 180 0.0 0.0 0.00 3.12 3.12 61 1008.6
20260506175307 17 173 0.0 0.0 0.00 3.12 3.12 63 1008.6
20260506174806 17 179 0.0 0.0 0.00 3.12 3.12 65 1008.7
20260506174306 17 179 0.0 0.0 0.00 3.12 3.12 65 1008.7
20260506173806 18 179 0.0 0.0 0.00 3.12 3.12 65 1008.6
20260506173305 18 179 0.0 0.0 0.00 3.12 3.12 65 1008.5
20260506172805 18 179 0.0 0.0 0.00 3.12 3.12 65 1008.5
20260506172307 18 179 0.0 0.0 0.00 3.12 3.12 65 1008.3
20260506171805 18 179 0.0 0.0 0.00 3.12 3.12 64 1008.3
20260506171304 18 179 0.0 0.0 0.00 3.12 3.12 64 1008.3
20260506170804 18 186 0.0 0.0 0.00 3.12 3.12 65 1008.2
20260506170304 18 186 0.0 0.0 0.00 3.12 3.12 65 1008.2
20260506165803 18 173 0.0 0.0 0.00 3.12 3.12 66 1008.2
20260506165305 18 173 0.0 0.0 0.00 3.12 3.12 67 1008.2
20260506164803 18 110 0.0 0.0 0.00 3.12 3.12 69 1008.2
20260506164303 18 169 0.0 0.0 0.00 3.12 3.12 68 1008.2
20260506163802 18 169 0.0 0.0 0.00 3.12 3.12 68 1008.1
20260506163302 18 169 0.0 0.0 0.00 3.12 3.12 68 1008.1
20260506162802 18 170 0.0 0.0 0.00 3.12 3.12 68 1008.2
20260506162301 18 169 0.0 0.0 0.00 3.12 3.12 69 1008.2
20260506161801 18 168 0.0 0.0 0.00 3.12 3.12 70 1008.1
20260506161301 18 177 0.0 0.0 0.00 3.12 3.12 72 1008.1
20260506160801 18 177 0.0 0.0 0.00 3.12 3.12 73 1008.1
20260506160300 18 179 0.0 0.0 0.00 3.12 3.12 73 1008.0
20260506155800 18 180 0.0 0.0 0.00 3.12 3.12 73 1008.0
20260506155300 18 187 0.0 0.0 0.00 3.12 3.12 72 1007.9
20260506154759 18 187 0.0 0.0 0.00 3.12 3.12 72 1007.9
20260506154259 18 187 0.0 0.0 0.00 3.12 3.12 72 1007.9
20260506153759 18 187 0.0 0.0 0.00 3.12 3.12 72 1007.8
20260506153259 18 187 0.0 0.0 0.00 3.12 3.12 71 1007.9
20260506152758 18 190 0.0 0.0 0.00 3.12 3.12 72 1008.0
20260506152258 18 218 0.0 0.0 0.00 3.12 3.12 72 1008.0
20260506151758 18 220 0.0 0.0 0.00 3.12 3.12 73 1008.1
20260506151257 18 228 0.0 0.0 0.00 3.12 3.12 73 1008.1
20260506150757 19 153 0.0 0.0 0.00 3.12 3.12 74 1008.0
20260506150303 19 153 0.0 0.0 0.00 3.12 3.12 74 1008.0
20260506145757 19 152 0.0 0.0 0.00 3.12 3.12 73 1007.9
20260506145256 19 164 0.0 0.0 0.00 3.12 3.12 73 1008.1
20260506144756 18 164 0.0 0.0 0.00 3.12 3.12 74 1008.2
20260506144256 18 164 0.0 0.0 0.00 3.12 3.12 75 1008.3
20260506143755 18 164 0.0 0.0 0.00 3.12 3.12 76 1008.2
20260506143255 18 164 0.0 0.0 0.00 3.12 3.12 77 1008.2
20260506142755 18 164 0.0 0.0 0.00 3.12 3.12 77 1008.1
20260506142255 18 165 0.0 0.0 0.00 3.12 3.12 78 1008.2
20260506141754 18 153 0.0 0.0 0.00 3.12 3.12 78 1008.1
20260506141254 18 177 0.0 0.0 0.00 3.12 3.12 78 1008.1
20260506140754 18 191 0.0 0.0 0.00 3.12 3.12 78 1008.2
20260506140253 18 194 0.0 0.0 0.00 3.12 3.12 79 1008.2
20260506135753 18 215 0.0 0.0 0.00 3.12 3.12 81 1008.4
20260506135253 18 186 0.0 0.0 0.00 3.12 3.12 82 1008.5
20260506134753 17 200 0.0 0.0 0.00 3.12 3.12 83 1008.5
20260506134252 17 173 0.0 0.0 0.00 3.12 3.12 83 1008.6
20260506133752 17 171 0.0 0.0 0.00 3.12 3.12 83 1008.7
20260506133252 17 170 0.0 0.0 0.00 3.12 3.12 84 1008.8
20260506132751 17 176 0.0 0.0 0.00 3.12 3.12 84 1009.0
20260506132251 17 175 0.0 0.0 0.00 3.12 3.12 84 1009.0
20260506131751 17 174 0.0 0.0 0.00 3.12 3.12 83 1008.9
20260506131251 17 175 0.0 0.0 0.03 3.12 3.12 83 1009.0
20260506130750 17 200 0.0 0.0 0.05 3.12 3.12 84 1009.2
20260506130250 17 211 0.0 0.0 0.08 3.12 3.12 84 1009.3
20260506125750 17 208 0.0 0.0 0.08 3.12 3.12 84 1009.3
20260506125249 17 199 0.0 0.0 0.08 3.12 3.12 85 1009.3
20260506124749 17 181 0.0 0.0 0.08 3.12 3.12 85 1009.3
20260506124249 17 217 0.0 0.0 0.08 3.12 3.12 85 1009.3
20260506123749 17 206 0.0 0.0 0.08 3.12 3.12 85 1009.3
20260506123248 17 160 0.0 0.0 0.08 3.12 3.12 85 1009.3
20260506122748 17 174 0.0 0.0 0.08 3.12 3.12 85 1009.2
20260506122248 18 359 0.0 0.0 0.08 3.12 3.12 85 1009.0
20260506121747 18 359 0.0 0.0 0.08 3.12 3.12 84 1008.9
20260506121247 18 359 0.0 0.0 0.05 3.10 3.10 84 1009.0
20260506120747 19 241 0.0 0.0 0.03 3.07 3.07 82 1009.2
20260506120246 19 238 0.0 0.0 0.00 3.05 3.05 80 1009.2
20260506115746 19 256 0.0 0.0 0.00 3.07 3.05 75 1009.0
20260506115246 20 272 0.0 0.0 0.00 3.07 3.05 74 1009.1
20260506114746 20 238 0.0 0.0 0.00 3.07 3.05 74 1008.8
20260506114245 20 213 0.0 0.0 0.00 3.07 3.05 72 1008.8
20260506113745 20 130 0.0 0.0 0.00 3.07 3.05 72 1008.7
20260506113245 20 174 0.0 0.0 0.00 3.07 3.05 72 1008.8
20260506112744 20 168 0.0 0.0 0.00 3.07 3.05 71 1008.7
20260506112244 20 172 0.0 0.0 0.00 3.07 3.05 70 1008.8
20260506111744 20 187 0.0 0.0 0.00 3.07 3.05 70 1008.8
20260506111244 20 184 0.0 0.0 0.00 3.07 3.05 72 1008.8
20260506110743 20 170 0.0 0.0 0.00 3.07 3.05 70 1008.7
20260506110243 20 171 0.0 0.0 0.00 3.07 3.05 74 1008.8
20260506105743 19 129 0.0 0.0 0.00 3.07 3.05 75 1008.8
20260506105242 19 166 0.0 0.0 0.00 3.07 3.05 79 1008.9
20260506104742 18 166 0.0 0.0 0.00 3.07 3.05 84 1009.0
20260506104242 18 162 0.0 0.0 0.00 3.07 3.05 88 1008.9
20260506103742 17 158 0.0 0.0 0.00 3.07 3.05 89 1008.9
20260506103241 17 132 0.0 0.0 0.00 3.07 3.05 92 1009.0
20260506102741 17 177 0.0 0.0 0.00 3.07 3.05 93 1008.9
20260506102241 17 158 0.0 0.0 0.00 3.07 3.05 95 1009.0
20260506101740 17 86 0.0 0.0 0.00 3.07 3.05 95 1008.9
20260506101240 17 116 0.0 0.0 0.00 3.07 3.05 96 1009.1
20260506100740 16 88 0.0 0.0 0.00 3.07 3.05 96 1009.2
20260506100240 16 108 0.0 0.0 0.00 3.07 3.05 96 1009.3
20260506095739 16 129 0.0 0.0 0.00 3.15 3.05 96 1009.3
20260506095239 16 118 0.0 0.0 0.00 3.15 3.05 96 1009.4
20260506094739 16 138 0.0 0.0 0.00 3.15 3.05 96 1009.3
20260506094239 16 106 0.0 0.0 0.00 3.15 3.05 96 1009.4
20260506093738 15 118 0.0 0.0 0.00 3.15 3.05 96 1009.4
20260506093238 15 136 0.0 0.0 0.03 3.15 3.05 96 1009.3
20260506092738 15 122 0.0 0.0 0.03 3.15 3.05 96 1009.5
20260506092237 15 106 0.0 0.0 0.05 3.15 3.05 96 1009.5
20260506091737 15 125 0.0 0.0 0.08 3.15 3.05 97 1009.4
20260506091237 15 137 0.0 0.0 0.10 3.15 3.05 96 1009.4
20260506090737 15 140 0.0 0.0 0.13 3.15 3.05 96 1009.3
20260506090236 15 141 0.0 0.0 0.13 3.15 3.05 96 1009.4
20260506085736 14 124 0.0 0.0 0.15 3.33 3.05 96 1009.4
20260506085236 14 108 0.0 0.0 0.18 3.33 3.05 96 1009.4
20260506084735 14 116 0.0 0.0 0.18 3.33 3.05 96 1009.6
20260506084235 14 112 0.0 0.0 0.18 3.33 3.05 96 1009.7
20260506083735 14 111 0.0 0.0 0.18 3.33 3.05 96 1009.6
20260506083235 14 110 0.0 0.0 0.15 3.30 3.02 96 1009.5
20260506082734 14 108 0.0 0.0 0.18 3.30 3.02 96 1009.5
20260506082234 14 119 0.0 0.0 0.15 3.28 3.00 96 1009.5
20260506081734 14 123 0.0 0.0 0.13 3.25 2.97 96 1009.5
20260506081233 14 141 0.0 0.0 0.13 3.23 2.95 96 1009.6
20260506080733 14 142 0.0 0.0 0.10 3.20 2.92 96 1009.5
20260506080233 14 96 0.0 0.0 0.13 3.20 2.92 96 1009.4
20260506073231 13 102 0.0 0.0 0.18 3.15 2.87 96 1009.5
20260506072731 13 111 0.0 0.0 0.18 3.12 2.84 96 1009.4
20260506072231 13 112 0.0 0.0 0.20 3.12 2.84 96 1009.5
20260506071730 13 113 0.0 0.0 0.25 3.12 2.84 96 1009.5
20260506071230 13 127 0.0 0.0 0.28 3.10 2.82 96 1009.6
20260506070730 13 127 0.0 0.0 0.36 3.10 2.82 96 1009.6
20260506070229 13 128 0.0 0.0 0.38 3.07 2.79 96 1009.6